Weather History for KPIR - January, 2013

Change the Weather History Date:

Tuesday, January 8, 2013

  Actual Average Record
Temperature  
Mean Temperature 32 °F 20 °F  
Max Temperature 40 °F 29 °F 61 °F (1958)
Min Temperature 24 °F 10 °F -23 °F (2010)
Degree Days  
Heating Degree Days 33 46  
Month to date heating degree days 337 365  
Since 1 July heating degree days 3265 3327  
Cooling Degree Days 0 0  
Month to date cooling degree days 0 0  
Year to date cooling degree days 0 0  
Moisture  
Dew Point 26 °F    
Average Humidity 76    
Maximum Humidity 88    
Minimum Humidity 63    
Precipitation  
Precipitation 0.00 in 0.01 in 0.14 in (1938)
Month to date precipitation 0.01 0.12  
Year to date precipitation 0.01 0.12  
Snow  
Snow 0.00 in 0.20 in 2.00 in (1991)
Month to date snowfall 0.2 1.3  
Since 1 July snowfall 12.1 12.5  
Snow Depth 2.00 in    
Sea Level Pressure  
Sea Level Pressure 29.85 in    
Wind  
Wind Speed 12 mph (WSW)    
Max Wind Speed 23 mph    
Max Gust Speed 30 mph    
Visibility 10 miles    
Events      
T = Trace of Precipitation, MM = Missing Value Source: NWS Daily Summary

Daily Weather History Graph

Daily Weather History Graph

Search for Another Location

Airport or City:

Trip Planner

Search our weather history database for the weather conditions in past years. The results will help you decide how hot, cold, wet, or windy it might be!

Date:

Astronomy

Jan. 08, 2013 Rise Set
Actual Time 8:16 AM CST 5:19 PM CST
Civil Twilight 7:43 AM CST 5:52 PM CST
Nautical Twilight 7:07 AM CST 6:28 PM CST
Astronomical Twilight 6:32 AM CST 7:04 PM CST
Moon 4:50 AM CST (1/8) 2:24 PM CST (1/8)
Length of Visible Light 10h 08m
Length of Day
9h 03m
Waning Crescent, 13% of the Moon is Illuminated
Jan 8
Waning Crescent
Jan 11
New
Jan 18
First Quarter
Jan 26
Full
Feb 3
Last Quarter

Hourly Weather History & Observations

Time (CST) Temp. Windchill Dew Point Humidity Pressure Visibility Wind Dir Wind Speed Gust Speed Precip Events Conditions
12:53 AM 25.0 °F 16.3 °F 21.0 °F 85% 29.83 in 10.0 mi ESE 8.1 mph - N/A   Clear
1:53 AM 26.1 °F 13.6 °F 19.9 °F 78% 29.80 in 10.0 mi SE 16.1 mph - N/A   Clear
2:53 AM 30.0 °F 17.5 °F 21.9 °F 72% 29.77 in 10.0 mi SE 19.6 mph - N/A   Mostly Cloudy
3:53 AM 32.0 °F 21.6 °F 21.9 °F 66% 29.74 in 10.0 mi SE 15.0 mph - N/A   Mostly Cloudy
4:53 AM 32.0 °F 21.6 °F 21.0 °F 64% 29.72 in 10.0 mi SE 15.0 mph - N/A   Overcast
5:53 AM 32.0 °F 21.6 °F 21.0 °F 64% 29.73 in 10.0 mi SSE 15.0 mph - N/A   Partly Cloudy
6:53 AM 30.9 °F 24.3 °F 21.0 °F 67% 29.73 in 10.0 mi South 6.9 mph - N/A   Mostly Cloudy
7:53 AM 30.0 °F 23.2 °F 21.9 °F 72% 29.74 in 10.0 mi SSW 6.9 mph - N/A   Overcast
8:53 AM 28.9 °F 18.6 °F 21.9 °F 75% 29.76 in 10.0 mi WSW 12.7 mph - N/A   Scattered Clouds
9:53 AM 28.9 °F 19.2 °F 21.9 °F 75% 29.78 in 10.0 mi West 11.5 mph - N/A   Clear
10:53 AM 30.9 °F 25.2 °F 21.9 °F 69% 29.81 in 10.0 mi Variable 5.8 mph - N/A   Clear
11:53 AM 34.0 °F 26.0 °F 25.0 °F 70% 29.80 in 10.0 mi WSW 10.4 mph - N/A   Clear
12:53 PM 37.0 °F 30.4 °F 28.0 °F 70% 29.79 in 10.0 mi West 9.2 mph - N/A   Partly Cloudy
1:53 PM 39.0 °F 32.8 °F 30.0 °F 70% 29.79 in 10.0 mi WNW 9.2 mph - N/A   Clear
2:53 PM 39.0 °F 30.6 °F 30.9 °F 73% 29.82 in 10.0 mi West 15.0 mph - N/A   Clear
3:53 PM 39.0 °F 31.4 °F 32.0 °F 76% 29.86 in 10.0 mi West 12.7 mph - N/A   Clear
4:53 PM 37.9 °F 30.5 °F 32.0 °F 79% 29.89 in 10.0 mi West 11.5 mph - N/A   Scattered Clouds
6:53 PM 36.0 °F 27.5 °F 30.0 °F 79% 29.96 in 10.0 mi West 12.7 mph - N/A   Clear
7:53 PM 37.0 °F 27.4 °F 30.9 °F 79% 29.99 in 10.0 mi WNW 17.3 mph - N/A   Partly Cloudy
8:53 PM 36.0 °F 27.1 °F 30.9 °F 82% 30.02 in 10.0 mi West 13.8 mph - N/A   Overcast
9:53 PM 35.1 °F 25.9 °F 30.0 °F 82% 30.06 in 10.0 mi WNW 13.8 mph - N/A   Clear
10:53 PM 34.0 °F 23.8 °F 28.0 °F 79% 30.10 in 10.0 mi West 16.1 mph - N/A   Clear
11:53 PM 33.1 °F 24.4 °F 28.0 °F 82% 30.12 in 10.0 mi West 11.5 mph - N/A   Clear